Regional Weather Roundup
Issued by NWS Cleveland, OH

Home | Current Version | Previous Version | Graphics & Text | Print | Product List | Glossary On
Versions: 1 2 3 4 5 6 7 8 9 10 11 12 13 14 15 16 17 18 19 20 21 22 23 24 25 26 27 28 29 30 31 32 33 34 35 36 37 38 39 40 41 42 43 44 45 46 47 48 49 50
000
ASUS41 KCLE 011410
RWRCLE
OHIO REGIONAL WEATHER ROUNDUP
NATIONAL WEATHER SERVICE CLEVELAND, OH
900 AM EST SUN MAR 01 2015

NOTE: "FAIR" INDICATES FEW OR NO CLOUDS BELOW 12,000 FEET WITH NO
SIGNIFICANT WEATHER AND/OR OBSTRUCTIONS TO VISIBILITY.

OHZ001>008-015>018-024>027-034-035-043-044-011500-
   NORTHWEST OHIO

CITY           SKY/WX    TMP DP  RH WIND       PRES   REMARKS
DEFIANCE       LGT SNOW  19  14  81 CALM      30.40R
FINDLAY        LGT SNOW  22  18  85 CALM      30.37S VSB 1
TOLEDO EXPRESS LGT SNOW  18  14  84 CALM      30.39S FOG
TOLEDO EXEC    LGT SNOW  19  15  84 CALM      30.40S FOG
LIMA           SNOW      24  21  88 CALM      30.36S VSB 1/2
$$

OHZ009>014-019>023-028>033-038-089-011500-
   NORTHEAST OHIO

CITY           SKY/WX    TMP DP  RH WIND       PRES   REMARKS
CLE-HOPKINS    LGT SNOW  23  20  88 SE3       30.41S VSB 3/4
CLE-LAKEFRONT  LGT SNOW  24  20  84 S7        30.38F VSB 1   WCI  16
CUY CO. ARPT   LGT SNOW  25  23  93 S7        30.38  VSB 1   WCI  17
LORAIN-ELYRIA  LGT SNOW  22  21  96 CALM      30.38S FOG
ASHTABULA      LGT SNOW  21  18  88 S5        30.38S FOG     WCI  15
AKRON-CANTON   LGT SNOW  26  22  84 SW10      30.35F VSB 1   WCI  16
WOOSTER        LGT SNOW  24  22  91 SW9       30.36S VSB 3/4 WCI  14
MANSFIELD      LGT SNOW  26  24  92 S7        30.34S VSB 1   WCI  18
YOUNGSTOWN     LGT SNOW  23  20  88 S5        30.35F VSB 3/4 WCI  17
$$

OHZ042-051>053-060>062-070>072-077>081-011500-
  SOUTHWEST OHIO

CITY           SKY/WX    TMP DP  RH WIND       PRES   REMARKS
CINC-COVINGTON LGT SNOW  30  25  81 SE6       30.36F WCI  24
CINC-LUNKEN    LGT SNOW  28  26  92 CALM      30.41S FOG
HAMILTON       LGT SNOW  30  27  88 VRB3      30.40R VSB 1
DAYTON         LGT SNOW  29  27  92 SW6       30.37S VSB 3/4 WCI  23
WRIGHT-PAT AFB LGT SNOW  27  25  94 CALM      30.38R FOG
DAYTON GENERAL LGT SNOW  30  28  92 S6        30.36S VSB 1   WCI  24
WILMINGTON     LGT SNOW  29  25  85 S7        30.37R VSB 1   WCI  22
$$

OHZ036-037-039>041-045>050-054>059-063>069-073>076-082>088-011500-
  CENTRAL AND SOUTHEAST OHIO

CITY           SKY/WX    TMP DP  RH WIND       PRES   REMARKS
COLUMBUS       SNOW      28  27  93 CALM      30.38F VSB 1/2
OSU AIRPORT    SNOW      29  27  92 S5        30.37S VSB 1/2 WCI  24
BOLTON FIELD   SNOW      28  28 100 CALM      30.38S VSB 1/2
RICKENBACK AFB LGT SNOW  30  29  96 CALM      30.38S VSB 1
NEWARK         LGT SNOW  28  25  88 CALM      30.37F VSB 3/4
MARION         SNOW      26  23  88 SW5       30.37R VSB 1/2 WCI  20
LANCASTER      LGT SNOW  31  29  92 SE6       30.39S VSB 1   WCI  25
ZANESVILLE     LGT SNOW  29  26  89 S8        30.39S VSB 1   WCI  21
NEW PHILLY     SNOW      27  23  85 SE3       30.39F VSB 1/2
$$



USA.gov is the U.S. government's official web portal to all federal, state and local government web resources and services.